Powrót do katalogu

COSMOS 886 DEB

AktywnyLEO
NORAD 9652·DEBRIS·🇷🇺 Russia

Wystrzelony Dec 27, 1976 z Baikonur Cosmodrome

Loading…

Następne Przeloty (najbliższe 24 godziny)

TLE

ŚwieżeSource: Space-Track

Epoka: Sep 14, 2026, 18:28 UTC

1 09652U 76126J   26257.76962071  .00000811  00000-0  44786-3 0  9996
2 09652  65.8277 275.9923 0896727 295.9725  55.1605 12.96796103320487

Śledź COSMOS 886 DEB w czasie rzeczywistym z AllMySat

Download on the App Store